GFSNE_con_lsi_000.txt.gz
Lid_Strength_Index
18 18 18 17 17 17 16 16 17 19 18 15 15 13 12 11 10 10 9 8 7 7 6 4 3 1 0 1 1 1 -0 1 -0 -0 0 0 1 1
18 19 18 18 18 17 16 16 15 16 18 16 15 14 12 12 11 10 11 9 8 7 6 5 3 3 2 1 0 1 1 -0 -0 -0 -0 -0 1 1
20 21 21 20 20 19 19 18 18 17 19 18 16 14 14 14 12 12 11 12 11 9 8 7 5 5 4 3 2 1 1 1 0 -0 0 0 -0 1
22 22 22 21 21 20 20 20 20 19 19 20 18 17 16 15 15 14 13 11 11 10 8 6 5 4 5 4 3 2 2 2 1 1 1 1 1 1
23 22 22 22 22 21 20 20 20 19 19 20 20 18 17 17 15 14 14 13 11 10 8 7 5 4 5 5 3 3 3 3 3 2 2 2 2 1
22 21 21 21 21 21 20 21 20 20 20 20 20 19 18 15 15 16 15 13 12 9 7 5 4 4 4 3 4 4 4 4 2 2 3 3 3 2
21 20 20 20 18 18 19 19 18 19 19 19 19 19 17 17 16 15 15 14 13 10 8 5 5 2 3 3 5 5 4 4 3 2 3 4 3 3
21 20 20 20 19 17 16 15 15 17 17 18 18 17 17 16 15 15 15 15 15 9 8 8 5 3 3 4 4 4 4 3 3 2 4 4 4 4
21 20 20 19 18 18 16 15 15 14 14 16 17 16 16 14 14 14 14 13 14 11 9 10 8 8 5 5 4 5 4 3 3 3 3 4 4 3
20 19 19 18 17 16 17 17 16 15 15 14 15 15 15 14 13 13 14 13 12 12 11 13 10 8 6 7 5 4 5 5 5 4 3 4 4 4
19 18 17 17 16 15 17 18 17 16 14 12 12 11 10 9 11 12 14 15 15 14 11 11 10 8 7 8 7 5 4 5 4 5 3 4 5 4
19 17 16 16 15 14 16 17 18 17 15 16 14 13 12 11 10 11 12 14 13 14 12 13 9 7 10 9 8 7 5 5 4 5 3 4 5 4
19 19 18 16 14 14 13 17 17 15 14 15 14 13 13 12 11 11 11 12 13 14 11 12 12 9 9 10 9 8 8 8 3 4 3 4 5 4
19 18 18 15 15 15 16 15 15 14 18 17 17 16 14 13 12 11 10 10 11 12 11 11 11 10 10 10 11 9 9 9 3 3 2 3 4 5
18 16 16 16 16 17 17 16 17 18 18 19 19 17 15 13 11 10 9 9 10 11 10 10 11 9 10 10 11 11 11 11 4 2 3 4 4 4
17 20 19 18 18 18 20 18 17 18 18 19 19 17 16 15 14 13 11 9 11 11 10 9 9 8 10 11 11 12 11 13 10 3 3 4 3 3
22 24 24 23 22 22 22 20 19 19 19 18 19 19 18 16 16 14 13 10 11 12 11 9 8 8 8 11 12 12 12 13 11 6 3 5 4 5
27 28 25 24 24 23 23 21 20 20 19 18 19 18 19 18 18 17 16 15 11 11 11 10 8 9 11 11 11 13 12 12 10 4 4 5 5 5
32 27 25 25 24 23 21 21 21 20 19 19 19 19 18 18 19 19 18 17 15 12 10 9 9 11 13 15 11 11 12 11 8 5 5 5 6 5
31 27 26 25 24 22 20 21 20 21 19 19 19 18 19 20 20 20 20 20 18 15 12 9 10 11 12 12 12 10 11 10 8 6 5 5 5 6
31 27 26 25 24 21 21 20 20 21 19 20 18 19 20 20 21 21 21 20 20 19 17 13 10 10 9 10 11 10 8 11 6 5 5 5 6 6
30 28 26 25 23 21 21 21 21 21 19 19 19 20 20 21 21 21 21 22 21 20 18 14 11 10 10 11 11 10 9 7 10 8 6 6 5 8
29 27 26 25 22 21 21 21 21 21 19 18 19 20 20 21 21 20 21 21 21 20 18 18 14 11 11 10 10 9 9 9 6 7 6 10 10 9

GFSNE_con_lsi_003.txt.gz
Lid_Strength_Index
19 19 19 18 17 17 17 18 19 22 21 18 18 15 14 14 13 13 12 10 9 8 8 7 7 7 6 4 4 3 2 0 -0 0 -0 1 1 -0
19 19 19 19 19 18 18 19 19 20 22 18 18 17 16 15 15 15 14 12 11 10 9 9 8 8 7 6 5 4 3 2 1 0 0 -0 2 -0
21 21 20 20 21 21 21 21 21 21 22 21 19 18 18 18 17 16 15 15 14 12 11 9 8 8 8 7 6 6 5 3 1 0 0 0 1 1
22 22 22 21 23 22 22 22 22 21 22 23 21 20 20 19 19 18 17 16 16 14 12 11 10 9 8 8 8 7 5 3 4 3 1 1 -0 2
22 23 23 23 23 23 23 23 22 21 21 22 23 21 20 19 19 18 17 17 15 13 11 10 10 9 8 7 7 6 6 5 4 3 3 2 1 2
22 22 23 22 23 23 23 23 22 22 22 22 22 22 20 19 18 19 19 17 16 13 11 10 9 8 7 6 5 6 6 6 5 4 3 3 2 3
22 22 21 21 20 20 20 21 20 21 21 21 21 20 19 18 18 17 18 17 14 13 13 12 11 9 9 8 7 5 4 5 4 4 3 3 3 2
21 21 20 20 20 18 17 17 17 19 19 19 19 19 18 17 17 17 16 16 17 12 13 13 11 11 10 9 7 6 5 3 4 3 3 3 3 3
20 20 20 20 19 19 18 17 16 16 15 17 18 17 17 16 16 17 15 16 16 14 13 14 12 13 10 9 7 5 4 3 3 4 3 4 4 4
20 20 20 19 18 18 18 18 17 17 16 16 16 16 15 14 15 14 15 15 14 13 12 16 13 13 11 9 6 4 2 2 3 3 4 3 3 3
19 19 19 18 17 16 17 18 18 18 15 14 13 12 12 11 10 12 13 15 16 14 11 12 13 13 11 10 7 5 2 2 2 3 4 3 3 3
19 18 17 17 16 16 16 18 20 19 18 17 15 15 15 15 12 13 13 15 14 15 11 11 12 11 13 10 9 5 3 2 3 5 4 4 3 2
19 19 18 17 16 14 14 17 19 16 17 20 20 19 18 16 14 12 12 13 14 15 11 11 13 12 12 13 10 8 6 4 4 4 7 4 4 5
21 18 18 16 16 15 16 16 15 16 21 21 21 20 19 17 16 14 13 12 11 11 10 10 12 12 12 14 13 9 7 6 5 6 7 6 4 3
18 17 17 17 17 18 18 17 18 21 21 22 22 20 17 16 15 15 15 14 13 11 9 9 10 10 12 13 13 10 7 6 6 7 8 7 2 3
19 23 20 19 19 19 20 20 20 20 21 21 21 18 17 17 17 16 17 15 16 15 11 9 8 10 12 12 12 11 9 9 7 7 8 8 8 2
28 29 27 23 22 22 22 21 21 21 21 20 20 19 18 18 18 17 17 17 18 18 16 12 7 9 10 11 12 10 9 9 8 8 8 10 9 2
29 31 28 25 24 24 23 23 22 22 21 20 19 19 19 19 18 18 18 19 19 19 17 14 11 9 10 10 9 10 9 9 9 8 9 10 10 4
32 33 30 27 25 24 24 23 24 22 21 19 19 19 18 18 19 20 20 20 20 19 18 17 14 12 12 13 9 7 10 9 9 9 9 11 10 9
35 35 33 31 27 26 25 24 24 23 21 20 20 19 18 19 20 21 20 21 21 20 21 19 18 15 13 11 9 7 7 9 9 9 10 8 8 6
34 36 34 31 28 27 26 25 24 22 21 20 20 19 18 19 20 21 21 20 20 21 22 22 19 15 13 12 10 10 9 8 8 9 8 9 7 5
33 36 33 33 30 28 27 25 23 22 21 20 20 18 18 19 21 21 21 21 21 21 21 20 19 18 17 15 14 11 10 9 7 9 10 10 5 7
36 36 33 34 31 29 27 25 23 21 21 20 20 18 19 20 20 20 21 21 21 21 21 21 20 18 17 16 14 12 11 10 9 8 9 11 11 7

GFSNE_con_lsi_006.txt.gz
Lid_Strength_Index
19 19 19 19 18 19 19 19 20 23 22 20 19 17 17 17 17 18 18 16 14 13 12 11 10 10 9 8 7 6 5 5 4 3 2 1 -1 -1
19 19 19 19 20 20 20 20 20 22 24 20 20 19 18 19 18 19 18 17 16 14 13 13 12 11 10 9 8 7 7 6 6 5 3 2 1 0
20 20 21 20 21 21 21 21 21 21 24 21 20 20 20 20 19 19 18 19 18 16 14 13 13 12 11 10 9 9 9 8 7 6 5 4 3 2
21 21 22 21 22 21 21 22 22 21 23 24 21 21 21 20 20 20 19 18 18 16 14 13 12 12 11 10 10 10 10 9 8 8 7 6 4 3
21 21 22 22 22 22 22 22 22 21 22 23 23 21 21 20 20 19 19 18 17 15 14 13 13 12 12 11 11 10 10 9 9 8 8 7 6 4
22 21 21 21 21 22 22 22 22 23 22 22 22 22 21 19 19 19 19 17 17 15 14 14 13 13 12 11 10 9 8 9 9 7 7 7 6 5
21 20 20 20 19 19 21 22 22 23 22 22 22 21 20 19 19 18 18 18 17 16 16 15 15 14 13 11 10 9 8 8 8 8 7 6 6 6
20 20 19 19 18 17 16 16 17 19 20 20 19 20 19 18 17 17 17 18 20 15 17 17 14 15 12 11 9 9 8 8 7 6 7 7 5 6
19 19 19 18 18 18 17 16 16 15 15 17 19 18 18 17 17 18 18 18 18 16 16 18 14 15 13 12 10 9 8 8 7 6 5 6 5 5
18 18 18 18 18 18 18 18 18 17 17 16 16 16 16 15 15 15 16 16 15 15 15 18 14 15 13 12 9 8 8 8 7 6 6 5 5 4
18 18 18 18 16 15 17 18 18 16 15 14 14 14 13 13 14 17 19 19 20 19 15 15 14 14 13 12 11 8 8 7 7 6 6 5 4 5
19 18 16 17 15 14 16 17 18 17 18 18 16 18 17 18 16 17 18 21 20 20 14 14 14 13 15 12 11 10 9 8 7 7 6 5 4 4
20 20 18 16 16 14 13 17 18 17 16 20 21 21 20 19 19 17 17 18 19 19 14 14 14 14 14 15 12 10 10 10 9 9 7 5 3 5
20 19 18 16 15 15 15 16 15 16 23 23 23 22 21 20 19 17 17 17 16 15 15 15 16 15 15 14 14 11 10 10 10 10 8 5 3 3
19 17 16 17 17 18 18 17 18 22 23 24 23 22 20 19 18 18 17 16 15 15 14 14 14 14 13 15 14 12 12 11 10 10 9 6 5 5
18 22 21 20 19 19 21 21 21 21 21 22 22 20 19 20 20 19 18 17 18 18 15 14 14 15 15 15 13 13 11 12 10 10 9 6 5 5
28 29 27 24 24 23 23 22 21 21 21 21 21 21 21 20 20 18 16 17 19 20 20 18 15 14 14 14 15 12 11 11 10 10 10 9 6 5
30 31 28 26 25 24 24 23 22 21 21 21 21 21 22 21 21 18 16 18 20 20 20 19 18 18 17 15 12 13 10 11 10 10 10 9 8 6
30 31 30 27 26 25 24 23 23 22 21 22 22 22 22 21 19 18 18 19 20 20 20 19 19 20 22 22 17 11 11 10 10 10 9 8 8 7
31 33 32 30 27 26 25 25 24 24 23 23 23 23 22 20 19 18 18 20 21 21 21 20 19 20 21 22 20 16 12 11 10 10 9 7 6 6
31 30 31 29 28 28 27 28 27 26 25 25 24 23 21 19 18 18 19 19 20 21 22 21 19 17 18 18 21 20 16 12 10 9 7 8 8 7
28 30 30 32 31 32 31 31 29 27 26 24 23 21 20 19 18 19 19 20 21 21 21 19 18 19 20 21 22 21 18 15 10 7 6 6 8 9
29 30 31 33 33 33 34 33 30 27 26 24 23 21 20 18 18 19 19 20 21 22 21 22 20 20 21 21 21 20 19 16 12 10 7 7 8 8

GFSNE_con_lsi_009.txt.gz
Lid_Strength_Index
19 19 20 19 19 19 19 19 20 23 22 20 20 18 19 19 18 18 19 17 15 15 14 14 13 12 11 10 9 9 8 7 6 6 5 5 4 3
19 20 20 19 19 19 19 19 20 22 24 21 20 20 19 19 19 19 19 17 17 16 15 14 13 13 12 11 10 9 8 7 7 6 6 5 5 4
20 20 20 20 21 21 20 21 21 21 24 22 20 20 20 20 20 19 19 19 19 16 15 14 14 13 12 11 11 10 9 8 7 7 6 6 6 5
20 20 21 20 22 22 22 22 22 21 22 23 21 21 21 20 20 20 19 18 18 17 15 14 13 13 12 12 11 11 10 9 9 8 8 7 7 6
21 21 21 21 22 22 22 22 22 21 21 22 22 20 20 19 19 18 18 18 17 15 14 14 13 13 13 12 12 11 11 10 10 10 9 8 8 8
21 21 21 21 22 22 22 21 21 22 21 21 21 20 19 18 17 18 18 17 17 16 15 15 14 13 12 12 12 12 11 11 10 9 9 9 10 10
21 21 21 20 18 19 21 21 21 22 22 22 21 19 18 18 18 18 18 18 18 17 17 16 16 16 15 13 13 12 11 11 10 10 10 10 10 10
22 21 20 19 18 16 16 16 19 23 23 22 19 18 18 17 17 18 18 19 20 16 17 17 15 16 15 14 12 11 11 10 10 10 10 9 9 8
21 20 19 19 19 18 16 15 15 14 14 16 18 17 17 17 16 17 17 17 17 16 17 19 15 16 14 14 11 11 11 10 10 10 9 8 7 6
20 19 19 19 18 19 19 19 18 18 17 17 17 16 16 15 15 15 16 18 18 17 17 21 18 18 16 15 12 11 11 10 9 8 8 7 7 6
20 19 19 18 17 16 18 20 19 18 15 14 13 13 13 13 13 17 21 21 22 21 18 19 19 18 17 16 14 11 10 8 8 7 7 7 6 6
19 19 18 18 16 16 18 22 23 19 17 20 17 16 17 17 15 17 20 22 22 23 17 19 19 19 21 18 16 13 12 9 9 8 8 7 7 8
20 19 19 16 16 15 15 18 18 18 19 22 22 21 20 19 19 18 18 19 21 21 17 17 19 19 20 20 17 15 14 12 11 10 9 8 8 8
20 19 19 16 15 15 15 16 15 17 26 27 25 23 22 20 19 18 17 17 17 18 17 17 19 19 20 20 20 16 15 14 12 11 11 9 8 7
19 18 16 16 15 17 18 18 19 23 26 28 25 22 20 19 18 18 18 18 18 17 15 16 17 16 16 18 19 18 16 15 13 12 11 11 10 9
17 17 17 19 19 20 22 21 22 22 22 23 22 20 19 20 20 19 20 19 20 19 17 14 14 14 17 18 18 20 18 19 15 13 11 11 10 9
23 23 25 24 24 24 24 24 23 22 22 22 22 21 21 20 20 19 20 20 21 21 19 16 14 15 16 18 20 19 19 18 16 14 12 12 11 10
23 25 25 24 24 24 25 24 24 23 22 22 22 22 21 21 21 20 20 21 22 20 19 17 17 18 19 18 16 18 18 18 16 15 13 13 12 10
24 24 25 25 26 25 25 25 25 23 22 22 22 22 22 22 22 22 21 21 21 19 18 17 18 19 22 24 20 15 18 18 17 16 13 12 12 10
26 27 28 28 27 26 26 26 25 25 24 23 24 24 24 24 23 22 21 22 21 20 19 18 18 19 21 22 22 19 15 17 17 18 16 13 9 8
27 27 28 28 27 28 28 28 30 29 27 27 29 27 25 24 23 22 21 20 20 20 21 20 18 16 18 18 21 21 18 15 15 17 16 16 15 11
26 26 28 29 29 30 31 32 33 32 29 29 29 26 24 23 22 22 21 20 20 20 20 19 18 18 19 21 22 21 20 19 16 15 14 14 15 15
26 27 28 30 32 32 33 35 33 29 29 30 28 26 24 24 22 21 19 20 20 20 20 20 19 19 20 20 21 22 21 21 20 20 18 14 12 11

GFSNE_con_lsi_015.txt.gz
Lid_Strength_Index
15 16 16 16 16 16 16 15 15 18 18 18 17 16 16 17 17 17 17 18 16 15 14 14 13 12 11 10 10 9 9 8 8 8 7 7 7 6
16 16 16 16 16 16 16 16 17 16 17 18 18 17 17 18 18 18 18 17 17 16 15 14 12 11 11 10 10 9 9 8 8 7 7 7 7 7
17 17 17 17 17 17 17 17 17 18 17 20 19 18 19 19 18 18 17 17 16 16 14 13 12 11 11 10 10 9 9 9 8 8 8 7 7 7
18 17 18 18 18 18 18 18 18 18 18 19 20 20 19 19 18 18 18 17 16 15 13 12 12 12 11 11 10 10 9 9 9 9 9 8 8 7
17 18 18 18 19 19 18 19 18 19 19 20 20 20 19 19 18 18 17 16 15 14 14 13 12 12 11 11 10 10 10 10 10 9 9 9 9 8
17 17 18 18 18 19 19 19 19 19 20 20 21 21 20 19 18 18 17 16 16 15 15 14 13 13 12 11 11 11 11 11 10 9 9 9 9 9
17 18 18 17 17 18 19 19 20 20 21 21 21 21 20 20 19 18 18 17 16 15 15 15 15 15 14 13 13 13 12 11 11 10 10 10 9 9
18 18 18 18 17 16 16 17 19 21 22 21 21 21 20 18 18 18 18 18 18 14 16 17 16 16 15 14 14 13 12 11 11 11 11 10 10 9
18 19 19 19 18 17 16 17 17 17 18 20 20 19 19 18 18 18 18 18 18 16 18 18 16 16 15 15 13 13 12 12 11 12 11 11 10 10
18 18 19 19 19 18 18 18 18 18 18 18 18 17 17 17 17 16 17 18 18 18 18 20 16 17 16 15 14 13 12 12 12 12 12 11 11 11
17 18 18 19 18 16 18 18 19 19 16 16 16 16 16 15 15 18 20 21 22 20 18 19 18 18 17 16 15 14 13 13 13 13 12 11 11 11
18 19 17 18 17 16 18 18 19 19 18 17 17 16 14 16 17 17 20 22 22 22 18 19 19 19 20 17 16 16 15 15 14 13 12 11 11 12
18 19 19 16 16 15 16 18 18 18 18 19 18 19 19 19 19 19 18 20 22 22 19 18 19 20 20 20 18 17 16 15 15 14 12 12 11 12
18 18 18 15 15 14 16 18 17 18 19 20 21 21 21 21 20 19 19 19 19 19 18 18 20 20 21 21 21 18 17 15 14 14 13 12 12 12
17 17 17 15 15 14 14 16 17 20 21 22 22 21 21 20 20 20 20 20 20 19 19 18 19 19 20 21 21 19 18 16 13 14 13 14 14 14
16 17 16 15 15 15 15 16 19 20 20 21 22 21 21 21 22 21 22 21 22 22 20 19 19 19 20 19 19 18 16 17 14 14 14 14 14 14
17 17 17 17 17 18 18 20 21 22 22 22 23 23 23 23 23 22 22 22 23 23 22 20 19 18 18 18 19 17 17 16 14 14 15 16 15 14
18 19 19 18 19 19 22 22 22 23 22 23 23 23 23 23 23 23 22 23 24 23 23 21 20 20 19 17 15 17 16 15 15 15 15 17 17 14
19 19 19 19 20 20 22 23 23 23 22 23 23 24 24 24 24 24 23 23 23 23 22 21 21 21 22 23 17 14 16 16 16 17 16 16 17 15
18 18 19 19 22 22 22 22 23 23 23 24 24 25 26 25 26 25 25 25 24 24 23 21 21 20 21 21 20 18 15 17 17 17 17 15 14 13
18 19 19 19 20 20 21 22 23 24 24 25 26 27 27 27 27 26 25 25 24 23 23 22 19 17 17 17 20 20 17 15 14 16 16 16 18 17
19 19 20 20 21 22 23 24 25 26 26 27 27 27 27 27 26 26 25 24 23 23 22 20 18 17 18 19 21 20 19 18 15 15 14 13 17 20
19 21 22 23 24 25 26 26 27 27 28 27 27 27 28 28 26 25 24 24 24 23 22 20 19 18 19 19 20 20 20 20 19 19 17 13 14 14

GFSNE_con_lsi_021.txt.gz
Lid_Strength_Index
11 11 11 11 11 11 11 12 13 16 16 14 15 13 13 13 15 16 15 15 15 14 14 13 13 12 12 11 11 10 10 10 10 9 9 9 8 8
12 12 12 12 12 11 12 12 11 12 14 14 14 14 14 14 14 16 16 15 15 14 14 14 13 12 12 12 11 11 11 10 10 10 10 9 9 8
12 12 13 12 12 12 12 12 13 12 12 16 14 14 14 16 16 17 16 17 16 15 14 14 14 13 12 12 12 12 11 11 11 11 10 9 9 8
13 13 13 13 12 12 12 13 14 14 13 17 16 16 15 15 17 18 18 17 16 15 14 14 13 13 13 13 12 12 12 12 11 11 11 10 9 9
13 13 13 13 13 13 13 14 14 16 14 15 17 17 17 16 17 18 18 18 18 15 14 14 13 13 13 13 13 12 12 12 12 11 11 10 10 9
13 13 13 13 13 14 14 14 14 15 15 15 18 18 18 18 18 19 19 18 18 17 16 15 15 14 14 13 13 13 13 13 12 11 11 10 10 10
14 14 13 13 13 13 14 14 14 15 15 16 17 18 19 19 19 18 18 17 17 16 17 17 16 16 16 14 14 14 13 13 12 12 11 11 11 10
15 14 14 14 13 12 12 12 13 14 15 16 16 18 18 18 18 18 18 17 19 15 17 17 16 16 16 16 14 13 13 13 12 12 12 11 11 11
14 14 14 14 14 14 13 12 12 11 12 14 15 17 17 17 17 17 17 17 17 16 16 18 17 18 16 16 14 13 13 13 13 12 12 12 11 11
13 14 14 14 15 15 15 14 14 14 13 13 14 14 15 16 16 16 16 16 16 17 17 19 17 18 17 16 14 13 13 12 12 12 12 12 12 12
13 13 14 14 13 13 15 15 15 14 13 12 12 12 13 14 14 16 17 18 19 18 17 19 18 18 17 17 17 14 13 12 13 13 13 13 12 12
12 12 13 13 13 12 15 15 16 15 15 15 15 14 14 14 13 15 16 18 19 20 18 19 19 19 20 17 16 16 15 14 14 14 13 13 12 14
11 12 12 11 11 12 12 14 15 14 14 15 16 16 16 16 15 15 15 16 18 19 18 18 19 19 20 20 18 17 16 16 17 16 15 14 13 13
11 11 11 11 11 11 11 12 13 13 15 16 17 17 17 17 16 16 16 16 17 18 17 18 20 19 20 21 21 17 17 17 17 17 17 15 14 14
10 10 9 10 11 12 11 12 13 13 15 17 18 17 17 16 16 17 18 18 18 18 18 18 19 19 20 21 21 19 20 18 17 18 18 17 17 17
10 9 9 9 10 12 13 12 13 13 16 17 17 16 16 17 19 19 20 20 21 21 20 19 19 20 21 20 21 21 20 21 18 18 18 18 17 17
11 11 10 10 11 13 15 14 14 14 15 16 16 16 18 19 20 20 20 21 23 23 22 21 20 20 20 20 23 21 21 20 19 19 19 20 18 18
10 12 12 11 12 14 14 15 15 14 15 16 17 18 19 20 21 20 21 22 23 22 22 22 21 22 22 21 19 22 21 21 20 19 19 21 21 19
11 11 12 12 12 13 13 13 15 16 16 17 18 19 20 20 21 22 22 22 23 22 22 22 22 24 26 26 21 17 21 21 21 22 21 21 22 20
10 11 11 12 12 12 12 13 15 16 17 18 19 19 20 21 22 22 23 23 23 23 23 23 23 23 24 26 27 22 18 22 22 22 22 20 19 17
9 10 10 11 11 11 13 14 16 17 18 19 20 20 20 21 22 22 22 23 23 24 25 24 22 20 21 22 26 24 21 18 19 20 21 22 22 22
9 9 10 11 11 13 14 15 17 17 18 19 20 21 22 22 23 23 24 25 25 24 24 22 21 22 23 23 24 23 22 21 19 18 18 18 22 24
8 9 11 11 12 13 15 16 17 18 20 21 22 22 22 23 23 23 24 24 24 24 24 24 23 22 22 22 23 24 23 23 22 22 21 17 17 16

GFSNE_con_lsi_024.txt.gz
Lid_Strength_Index
13 14 14 14 14 14 14 15 16 20 19 18 18 15 14 14 14 16 17 14 13 12 12 12 11 11 11 11 11 11 11 10 10 10 9 9 9 9
14 15 14 15 14 14 14 15 15 16 18 18 17 16 14 14 14 17 18 15 14 13 12 12 12 11 11 11 11 11 11 11 10 10 10 10 10 9
15 15 15 15 14 15 15 15 15 16 17 19 17 16 15 16 16 17 17 17 17 14 13 13 12 12 12 12 12 12 12 11 11 11 11 11 10 10
15 15 15 14 15 16 16 14 14 16 17 19 18 17 16 15 16 18 18 17 18 15 13 13 13 13 12 12 12 12 12 12 12 12 12 11 11 10
14 15 14 15 15 14 15 15 14 15 16 19 19 18 18 16 18 19 19 19 18 15 13 13 13 13 12 12 12 13 13 13 13 13 12 12 11 11
13 13 13 14 14 14 14 15 15 15 15 18 19 18 18 16 17 19 19 18 19 18 16 15 14 13 12 12 13 13 13 13 13 13 13 12 12 11
13 13 13 13 12 13 14 14 14 15 15 15 18 20 19 18 18 18 19 19 19 18 18 18 17 16 15 13 14 13 13 13 13 13 13 12 12 11
13 13 13 13 13 11 11 11 12 14 14 14 15 17 18 18 17 18 18 19 20 17 18 18 17 18 16 16 14 13 13 13 13 13 13 12 12 12
12 12 12 13 13 14 12 11 11 10 11 13 14 16 17 17 17 18 18 17 17 17 17 18 17 17 16 16 14 13 13 13 13 13 13 13 13 12
11 12 12 12 12 13 14 14 13 13 12 12 13 13 14 16 16 16 16 16 18 17 17 19 17 17 17 17 13 13 13 13 13 13 13 14 13 13
11 11 11 11 10 9 12 14 14 14 12 11 11 11 11 12 15 16 17 19 22 20 17 19 19 18 17 17 16 13 13 13 13 13 14 14 14 14
12 12 11 11 9 9 11 12 15 15 14 14 13 12 11 12 13 15 16 18 18 22 18 19 19 19 20 18 17 17 16 13 13 14 14 14 14 16
13 12 11 9 9 8 8 11 12 11 13 13 14 14 14 15 14 14 14 15 17 20 18 18 19 20 21 20 18 17 17 16 16 16 15 15 15 15
12 11 11 8 8 8 9 9 9 10 12 13 14 15 15 16 15 15 15 15 15 16 17 17 19 20 21 21 20 18 18 17 17 17 17 16 15 15
12 10 9 8 8 8 8 8 9 10 12 13 14 15 15 15 15 16 16 18 18 17 17 18 19 18 19 20 21 19 20 19 17 18 17 17 18 17
11 11 10 9 9 9 9 8 8 9 11 12 13 14 14 15 16 16 18 18 19 20 18 18 18 18 20 20 20 20 19 20 18 18 18 17 17 17
14 13 13 13 13 12 10 9 9 9 10 11 12 14 15 16 17 17 18 19 20 22 22 20 19 19 19 19 21 20 20 20 19 19 19 19 18 17
14 15 15 14 13 13 11 10 10 10 10 10 12 13 15 16 18 19 19 20 20 22 22 22 21 21 22 21 19 21 21 21 20 19 19 21 21 19
15 14 14 13 12 12 11 11 12 10 9 10 12 13 15 17 19 20 21 20 21 21 22 22 22 23 24 25 21 18 21 21 20 20 20 21 22 20
16 15 14 13 11 11 11 11 11 10 10 11 12 14 15 17 19 20 20 21 21 22 22 22 21 21 22 23 24 21 17 20 21 22 22 21 20 18
16 14 13 11 10 10 10 10 9 11 12 13 14 15 15 17 18 19 20 21 21 22 23 23 21 19 21 22 25 25 22 19 19 21 21 22 23 23
13 13 11 9 9 9 9 9 11 12 13 13 14 15 16 17 18 20 21 22 22 22 22 22 21 21 23 23 24 24 23 21 20 19 19 20 22 25
11 11 10 8 9 10 10 10 11 12 13 14 15 16 17 18 18 19 21 21 22 23 23 23 22 22 23 23 24 24 23 23 23 23 22 19 18 18

GFSNE_con_lsi_027.txt.gz
Lid_Strength_Index
14 14 13 13 13 14 15 15 14 17 19 18 18 15 14 14 13 13 16 12 11 10 10 10 10 10 10 9 9 9 9 10 10 10 10 10 10 10
14 15 14 13 14 14 13 15 16 14 16 16 17 17 14 14 14 14 16 13 12 11 11 10 10 10 10 10 10 10 9 10 10 10 11 10 10 10
15 15 15 15 14 13 15 14 15 17 15 15 18 17 16 15 15 15 16 16 15 12 11 10 10 10 10 10 10 10 10 10 10 11 11 11 11 11
14 15 14 14 15 14 15 14 14 15 14 15 19 18 17 15 15 16 17 17 17 14 12 11 10 10 11 10 10 11 11 11 11 11 12 11 11 11
12 13 14 14 14 14 14 14 14 14 15 14 16 19 18 17 18 17 18 18 18 15 12 11 11 11 11 11 11 11 12 12 12 12 12 12 12 12
13 12 12 13 13 13 14 14 14 14 15 16 15 19 19 18 16 18 19 19 18 17 15 13 12 11 11 11 11 11 12 12 12 12 13 12 12 12
13 13 13 12 11 11 13 13 13 14 14 15 15 19 19 19 18 18 17 17 18 17 17 16 14 14 14 12 12 12 12 12 12 13 13 13 12 12
13 12 12 13 11 10 9 9 11 13 13 13 14 15 16 16 17 17 17 19 20 17 18 18 16 16 15 15 12 12 12 12 12 13 12 12 13 13
13 13 12 12 12 12 11 9 9 8 9 12 13 13 14 15 16 16 17 17 17 17 17 18 17 17 16 16 12 12 12 12 12 12 12 12 12 13
13 13 12 12 11 11 12 12 12 11 10 10 11 11 12 14 14 14 15 15 16 17 16 18 18 18 17 16 13 12 12 12 12 12 12 12 12 13
14 13 13 13 11 9 11 12 12 12 9 8 8 9 9 9 13 14 15 17 18 19 17 18 18 17 17 17 16 12 12 12 12 12 12 12 13 13
15 14 13 12 11 10 11 12 12 12 12 11 11 9 9 10 10 14 14 17 16 18 17 18 18 19 20 17 17 15 14 12 12 12 12 13 13 15
16 15 14 11 10 10 8 10 11 11 11 11 12 11 10 10 11 12 14 14 15 16 17 16 18 18 19 20 18 17 15 15 15 13 12 13 13 15
17 15 14 12 11 9 9 8 7 7 9 11 12 12 11 11 10 11 13 14 13 14 16 15 18 18 20 21 21 18 17 16 16 16 16 14 14 14
17 16 14 13 12 11 10 8 8 8 9 9 11 12 11 11 10 10 11 13 14 16 16 15 16 17 17 20 21 20 19 18 17 18 18 18 17 17
17 17 16 14 13 13 12 9 9 9 9 9 9 10 10 11 12 11 12 13 15 16 16 15 17 17 17 19 19 20 19 21 19 18 18 18 17 17
16 18 18 16 16 15 12 11 12 11 10 9 8 9 10 11 12 12 13 14 15 18 19 18 17 17 18 19 21 19 20 20 19 19 18 19 18 18
14 16 17 17 17 16 15 13 12 11 10 9 9 9 10 11 11 12 12 14 15 17 18 20 20 20 21 21 19 20 20 20 19 19 19 20 20 18
14 16 17 17 17 15 14 13 12 10 9 9 9 9 10 11 11 12 13 14 14 17 18 19 19 21 24 24 22 18 21 20 20 20 20 20 21 20
14 16 17 16 16 16 15 13 11 9 9 8 8 8 10 11 12 13 13 14 14 17 18 19 20 20 21 22 24 21 18 20 20 21 21 21 20 19
15 14 15 16 16 15 14 13 11 9 9 9 8 9 10 11 13 13 14 14 14 16 19 19 19 18 20 20 23 23 20 17 19 21 21 22 23 23
17 17 16 14 14 12 13 11 10 9 9 8 9 10 11 11 13 14 14 15 15 16 18 18 18 20 21 22 23 23 23 21 19 18 19 20 23 25
18 17 14 12 11 10 8 9 9 10 9 9 11 11 11 13 13 14 15 15 16 17 19 20 19 19 21 21 22 23 23 23 22 23 23 20 20 19

GFSNE_con_lsi_030.txt.gz
Lid_Strength_Index
15 15 14 13 13 13 13 13 14 16 15 18 17 16 14 14 13 13 13 11 9 8 8 8 9 9 8 8 7 7 7 8 8 8 8 8 8 8
15 15 15 14 14 14 14 13 13 14 16 16 17 16 15 14 14 14 13 13 10 9 9 9 9 9 8 8 8 7 7 7 8 8 8 8 9 8
15 16 15 14 14 15 15 14 14 13 15 14 17 17 17 16 16 14 14 15 13 10 9 9 9 9 9 9 8 8 8 8 8 8 9 9 9 9
16 15 15 14 15 14 14 14 15 14 14 15 14 18 17 16 15 15 15 15 15 13 10 10 10 10 10 9 9 9 9 9 8 9 9 9 9 9
15 15 15 15 15 14 14 14 14 13 15 15 15 17 18 17 17 17 16 17 16 14 11 10 10 10 10 10 9 9 9 9 9 10 10 10 10 10
15 15 14 14 15 15 14 13 13 13 13 14 15 15 18 17 16 17 18 17 17 16 14 12 11 10 10 10 10 10 10 9 10 10 11 11 11 10
13 14 14 14 13 13 14 14 14 13 13 13 14 15 18 18 17 16 16 16 16 16 17 16 14 13 12 10 11 10 9 10 10 11 11 12 11 11
14 13 13 13 13 11 11 10 10 13 14 13 13 13 13 15 14 14 16 17 18 16 17 17 16 15 14 13 11 10 9 9 10 11 11 12 12 12
15 15 14 13 13 13 11 10 10 9 9 11 13 13 13 12 13 14 15 14 15 16 16 17 16 17 15 14 11 9 9 9 10 11 11 12 12 12
14 15 15 15 14 13 12 12 12 12 11 11 10 10 10 10 11 12 12 14 13 16 15 17 16 18 16 15 12 10 9 9 10 11 11 12 12 12
15 15 15 16 14 12 14 14 14 12 10 8 8 8 7 7 7 10 13 14 15 14 16 16 17 17 17 16 15 11 10 9 9 10 11 11 11 12
16 15 14 14 13 12 13 14 15 14 12 11 11 10 8 8 7 8 11 13 13 14 15 16 16 17 18 16 16 15 12 10 10 10 11 11 11 13
17 17 16 14 13 13 12 13 13 12 11 10 10 11 11 11 10 9 8 11 12 13 14 14 14 16 17 19 17 16 14 13 12 12 11 11 11 12
17 16 17 14 14 13 13 13 12 11 11 11 10 11 11 11 10 9 9 9 9 10 10 12 15 15 17 19 19 17 15 14 13 13 13 12 11 11
15 14 12 12 12 13 13 13 14 15 14 13 11 10 10 9 9 9 8 8 9 9 10 11 12 14 15 16 19 18 17 15 14 14 14 14 14 14
13 14 14 13 12 13 14 14 14 15 15 14 11 9 8 9 9 8 9 9 9 10 10 11 11 11 15 15 16 19 17 18 15 15 15 15 15 15
11 12 13 16 18 18 18 16 15 15 16 13 11 10 9 9 9 9 9 9 10 11 13 13 11 11 12 14 17 17 17 17 17 16 17 18 18 17
12 13 13 14 14 15 16 17 16 15 15 12 11 11 11 10 9 10 9 10 11 11 12 15 13 15 17 17 14 16 17 17 18 17 18 19 20 18
15 15 15 14 14 14 15 16 16 15 13 13 12 12 11 9 9 9 10 10 12 11 13 14 14 14 17 19 18 13 16 17 18 18 18 19 20 19
19 18 17 16 15 15 15 15 15 14 14 13 12 12 10 8 9 9 10 11 12 12 14 15 14 13 14 16 19 17 13 17 18 19 19 19 18 17
20 19 18 18 17 17 14 15 16 16 15 15 13 11 10 8 9 9 9 10 11 12 15 16 14 12 12 15 18 18 16 14 16 18 19 21 22 22
21 21 19 18 16 14 13 13 14 14 15 14 12 10 9 9 9 9 10 11 11 12 14 14 14 15 15 15 17 18 17 16 15 15 16 19 21 24
22 21 20 19 17 16 15 13 11 12 12 11 10 9 10 10 9 9 10 10 11 13 14 15 15 15 15 15 17 18 18 19 19 20 20 18 18 18

GFSNE_con_lsi_033.txt.gz
Lid_Strength_Index
15 15 15 14 14 13 12 12 14 16 15 13 17 16 16 15 14 13 12 11 8 6 5 5 6 6 6 7 6 6 5 5 6 6 6 6 7 7
15 15 15 14 14 14 14 14 14 14 16 15 14 16 16 15 14 14 13 12 10 7 6 6 7 7 7 7 7 6 6 6 6 6 6 6 7 7
15 15 15 14 14 13 14 14 15 15 16 14 14 15 16 16 16 15 14 14 13 10 8 7 7 7 8 8 8 7 7 7 6 6 6 7 7 7
16 16 16 14 14 13 13 14 14 14 15 16 14 14 17 16 16 15 15 14 14 12 10 8 8 8 8 8 8 8 8 7 7 7 7 7 7 7
15 15 15 15 15 15 14 14 14 13 14 15 15 14 15 16 16 16 15 15 15 13 11 9 8 8 8 8 8 8 8 8 8 8 8 8 8 8
14 14 15 15 15 15 14 14 14 14 14 14 15 15 15 15 15 16 16 15 15 15 13 12 10 9 8 8 9 9 9 9 8 8 8 9 9 9
15 14 14 14 13 13 14 13 14 14 14 14 15 15 15 17 16 14 15 13 15 14 16 15 14 12 11 9 10 10 9 9 8 9 9 9 9 9
14 14 14 15 14 13 12 11 11 13 14 13 14 15 15 15 14 14 15 15 15 14 14 15 15 14 13 12 10 9 9 9 9 9 9 9 9 10
15 15 14 14 14 14 13 12 12 12 11 12 13 13 13 13 13 14 14 14 14 14 14 14 14 15 13 13 10 9 9 9 9 9 9 9 10 10
16 16 16 16 15 14 15 15 15 14 13 12 12 13 12 11 11 11 12 13 12 12 13 15 14 15 14 13 11 10 9 9 9 9 9 9 10 10
16 16 16 16 14 13 15 16 15 15 12 10 10 10 9 8 9 10 12 14 14 14 14 14 13 15 15 14 13 10 9 9 9 9 9 9 9 10
16 16 14 14 13 12 14 15 16 15 14 13 12 11 10 10 8 9 10 11 13 14 12 14 13 14 16 15 14 14 12 9 9 8 9 9 9 11
17 16 15 13 12 12 11 14 15 14 14 14 14 13 11 11 10 10 9 9 11 12 13 12 13 13 14 16 14 14 14 12 11 10 8 9 9 10
17 16 15 12 12 11 11 10 10 10 13 15 16 15 14 12 10 9 9 9 8 9 9 10 13 12 14 14 14 14 15 14 12 12 11 10 9 9
14 13 11 11 10 10 10 10 11 14 15 17 17 17 16 14 12 9 9 8 8 8 8 8 10 11 12 14 14 15 15 15 13 13 12 12 12 11
13 14 13 11 10 10 12 12 12 13 15 16 16 15 15 15 14 11 10 9 9 9 7 7 9 9 11 11 12 15 13 14 13 13 12 12 12 12
12 13 14 14 14 14 15 15 15 15 16 16 16 15 15 15 15 13 9 9 10 10 10 8 7 8 9 10 12 12 14 13 12 12 13 14 13 12
16 19 19 19 18 17 16 15 14 13 14 14 15 15 15 15 14 13 9 9 10 10 10 11 10 10 12 13 9 12 13 13 13 12 13 14 15 13
23 22 21 20 20 18 18 17 16 14 13 14 14 14 14 14 11 11 10 10 10 10 9 13 11 11 13 14 16 9 13 13 13 13 13 15 15 16
23 23 22 21 20 20 19 18 16 15 13 14 14 14 13 13 11 12 12 12 11 10 9 12 11 11 12 13 15 16 9 12 14 14 14 13 14 14
24 23 22 22 21 20 19 17 15 14 13 14 15 15 14 13 12 11 10 10 11 10 11 15 12 9 9 12 15 17 13 9 11 13 13 15 16 17
22 22 21 21 21 20 19 18 16 15 13 13 14 14 14 13 13 12 11 10 11 11 11 12 12 11 12 12 15 18 15 13 10 10 11 13 16 19
21 21 20 20 20 19 19 18 16 15 14 13 12 12 11 11 11 10 10 10 10 10 12 13 12 11 11 12 14 15 15 15 14 15 15 13 13 14

GFSNE_con_lsi_036.txt.gz
Lid_Strength_Index
15 15 15 14 13 13 13 14 15 16 15 14 15 15 15 15 14 15 14 11 9 8 6 4 4 4 4 4 4 5 4 4 4 4 5 5 5 5
16 16 15 14 14 13 13 13 14 15 16 15 13 15 14 14 14 14 15 13 11 10 8 6 5 5 5 5 5 5 5 4 4 4 5 5 5 5
16 16 16 15 15 15 14 14 14 14 16 15 14 13 14 14 13 15 14 14 14 11 10 8 7 6 5 5 6 6 6 6 5 5 5 5 6 5
16 15 15 14 15 15 16 15 14 14 14 16 15 14 14 13 14 14 14 14 14 12 11 10 9 7 6 6 6 6 6 6 6 5 6 6 6 6
15 15 15 15 15 15 15 15 15 14 14 15 15 14 14 13 14 14 14 14 14 12 11 10 10 9 8 7 7 7 7 7 7 7 7 6 6 6
14 14 14 15 15 15 15 14 14 15 14 14 15 15 14 13 14 13 14 14 14 14 13 12 11 10 9 8 8 8 8 8 8 7 7 7 7 7
13 13 13 13 12 12 14 14 14 15 15 14 15 14 15 15 14 13 14 13 13 14 14 15 14 13 13 10 10 9 8 8 8 8 8 8 8 8
15 15 14 14 13 12 11 12 12 14 15 15 15 15 15 14 13 13 13 14 15 13 14 14 14 15 14 12 10 9 8 8 8 8 8 8 8 8
15 15 15 15 15 15 14 13 13 12 12 15 16 16 15 14 13 13 13 13 14 12 13 14 14 15 14 13 10 9 8 8 8 8 8 8 8 8
16 16 16 16 15 15 15 15 14 14 14 13 14 15 14 14 13 13 13 13 12 12 13 14 13 14 14 14 10 9 8 8 8 8 8 8 8 9
16 16 16 16 14 13 14 15 15 14 12 11 11 10 10 10 10 12 14 14 15 13 12 13 13 13 13 14 13 9 8 7 7 8 8 8 8 8
15 15 14 14 12 12 13 15 16 15 14 14 14 13 12 12 11 11 12 14 14 14 11 13 13 15 16 13 13 13 11 9 8 7 7 7 8 9
15 15 15 13 12 12 11 13 14 13 13 13 13 13 13 13 13 12 11 12 13 13 10 11 11 12 13 16 14 13 12 12 11 9 7 7 7 8
15 14 14 12 11 10 10 10 9 9 12 14 15 15 15 15 14 13 12 12 12 10 9 9 11 11 13 13 14 14 13 12 11 11 10 9 7 7
12 12 10 10 10 11 11 10 11 13 14 15 15 15 14 14 13 13 13 13 14 12 10 9 9 10 11 12 13 16 15 14 12 11 10 10 10 9
11 12 13 13 13 13 14 13 14 13 14 15 15 14 14 14 15 14 15 15 15 15 12 9 8 8 10 10 11 16 13 15 13 12 11 10 9 9
14 17 20 20 20 19 18 17 16 15 16 15 15 16 15 15 15 14 14 15 17 16 15 10 8 8 8 9 10 11 12 13 13 12 11 11 9 9
20 24 23 22 22 21 21 20 19 18 17 16 16 15 15 15 15 14 14 15 16 15 14 10 8 9 9 8 7 10 11 12 12 11 11 11 11 9
27 25 25 24 23 22 22 21 20 18 17 16 16 16 14 14 14 15 14 13 13 13 12 8 9 10 12 13 16 7 9 10 11 11 10 10 11 10
31 26 25 24 23 23 22 21 20 19 18 17 16 14 13 14 15 14 14 14 11 9 9 9 9 10 11 12 13 16 7 10 11 11 11 10 10 8
24 24 23 22 22 21 21 20 20 19 18 17 15 14 13 14 15 14 13 12 11 10 11 12 11 8 8 10 13 17 15 7 9 11 10 11 13 14
24 23 22 21 21 20 20 19 19 18 18 17 16 15 12 12 14 14 13 13 12 10 10 11 12 11 11 12 13 18 15 11 8 8 9 10 13 16
23 23 22 21 20 19 19 19 19 18 17 16 16 15 14 13 11 11 11 10 10 10 11 13 13 11 11 11 14 15 14 12 12 14 13 10 12 11

GFSNE_con_lsi_042.txt.gz
Lid_Strength_Index
11 11 11 11 10 10 11 11 13 15 14 12 10 7 7 8 9 10 10 10 10 10 9 8 8 7 6 5 4 3 2 1 1 2 2 2 2 3
11 12 11 11 11 11 11 11 11 12 14 12 11 9 9 9 8 9 9 10 10 10 10 9 9 8 8 7 6 4 3 2 2 2 2 3 3 2
11 12 12 11 11 11 11 11 11 12 13 12 11 10 10 10 9 9 8 8 9 10 10 10 9 9 8 8 7 6 4 3 3 2 3 3 3 3
13 13 13 12 12 12 12 12 12 12 13 14 12 12 11 10 10 10 9 9 9 8 8 9 9 9 9 8 8 7 6 5 5 4 3 3 3 3
13 13 13 13 13 13 13 13 13 12 12 13 14 12 12 11 11 10 10 9 9 8 8 8 8 9 9 9 8 7 8 7 6 6 5 5 4 3
12 12 12 12 12 12 13 12 12 12 12 12 13 12 12 12 12 12 12 10 10 9 8 8 8 8 8 9 9 9 8 8 7 6 6 6 6 5
11 11 11 12 12 12 12 12 13 13 13 13 13 13 13 13 13 13 13 12 12 11 10 8 8 8 8 8 8 9 9 8 7 7 7 7 7 7
12 12 12 12 12 12 12 11 11 13 14 14 14 14 14 13 12 13 14 14 16 11 11 11 9 9 8 8 8 9 8 8 8 7 7 7 7 7
12 12 13 12 12 13 12 11 11 11 10 12 13 14 14 13 13 13 14 14 14 12 12 14 12 12 10 9 8 8 9 8 8 8 7 7 7 7
12 12 12 12 12 12 12 12 11 11 10 11 11 11 12 11 11 12 12 12 12 11 11 15 12 12 10 9 9 8 8 8 8 7 7 7 7 7
12 11 11 12 11 9 10 11 10 10 9 9 9 9 8 8 9 10 12 13 14 13 11 12 12 12 12 12 10 9 8 8 8 7 7 7 7 7
11 10 9 10 9 9 10 10 11 10 10 9 10 10 9 10 9 10 11 13 13 14 11 13 13 12 14 11 11 10 9 8 7 7 7 6 6 7
10 10 10 9 9 8 8 10 11 10 11 11 10 10 10 10 10 10 10 11 13 13 10 11 12 12 13 14 12 10 10 10 8 8 8 7 6 6
11 10 10 9 10 10 10 11 10 11 13 13 13 13 12 12 11 10 10 10 10 11 10 11 13 13 14 15 15 12 11 10 8 9 8 8 7 6
9 9 10 11 12 12 12 12 13 14 15 15 16 15 14 13 12 12 11 11 11 10 10 10 12 12 13 14 15 14 14 12 9 8 8 8 8 7
9 11 12 13 13 13 15 14 15 16 17 17 16 15 15 15 14 14 13 13 13 13 11 11 11 12 14 13 14 15 13 14 10 9 8 8 7 7
11 13 15 15 16 16 16 16 16 16 17 17 17 17 17 16 15 14 14 14 14 14 13 11 10 11 12 13 15 14 14 13 12 9 9 9 8 7
12 16 16 16 17 17 17 17 17 17 17 17 17 17 17 17 16 15 14 14 14 13 12 11 11 12 12 12 11 14 14 14 12 10 8 9 9 7
15 16 17 17 18 17 17 17 17 16 17 17 17 16 16 16 15 14 14 13 12 12 12 11 11 12 14 14 11 9 13 12 11 9 8 8 9 7
17 17 18 18 18 18 18 18 17 17 17 16 16 16 15 15 15 15 14 14 13 12 12 11 11 11 12 11 11 9 7 10 9 8 8 7 7 6
17 18 18 19 18 18 18 18 18 17 17 17 16 15 15 15 16 15 15 14 14 13 12 11 10 9 9 8 9 8 7 5 5 6 6 7 8 8
18 19 19 19 19 19 19 18 18 17 17 16 16 15 15 15 16 16 15 14 14 13 12 9 8 8 8 9 8 7 7 6 5 6 7 6 7 9
20 20 20 20 20 20 19 19 18 18 17 17 16 15 15 16 15 15 15 14 13 12 11 10 9 7 8 8 8 7 7 6 7 10 11 8 7 7

GFSNE_con_lsi_045.txt.gz
Lid_Strength_Index
11 10 11 10 10 10 10 10 12 15 14 11 11 9 9 9 9 9 9 8 8 7 7 7 8 8 8 7 6 6 5 4 3 2 1 2 2 2
11 11 11 10 10 10 10 10 11 12 15 12 11 10 9 9 9 9 9 8 8 8 7 7 7 8 8 8 7 6 6 5 4 3 1 1 2 2
11 11 11 11 11 11 11 11 11 11 14 13 11 11 11 11 10 9 9 10 10 8 8 7 7 7 8 8 8 8 7 6 6 4 3 1 2 2
12 12 12 12 12 12 12 12 12 12 13 15 13 13 13 12 11 12 11 10 10 8 7 7 7 7 7 7 7 8 8 7 7 6 5 4 3 2
12 12 12 12 12 12 12 12 12 12 12 13 14 12 12 12 13 12 12 12 10 9 8 7 7 7 7 7 7 7 8 8 7 7 7 6 5 4
11 11 11 11 12 12 12 12 11 12 12 13 13 13 13 12 12 13 13 12 13 11 11 11 9 9 8 7 7 7 7 8 8 7 7 7 6 5
11 11 11 11 10 10 11 12 12 13 13 14 14 14 14 14 14 13 14 13 13 12 13 13 13 11 11 9 8 7 7 7 7 7 8 7 7 6
11 11 11 10 11 10 10 10 10 12 13 14 14 14 13 13 13 13 14 15 16 12 13 13 12 13 12 12 10 9 8 7 7 8 7 7 7 7
11 11 11 11 11 11 10 10 10 9 9 11 12 12 13 12 12 13 13 13 14 12 12 14 12 13 12 11 9 9 9 9 8 8 7 8 7 7
11 11 11 11 10 10 11 10 10 10 10 10 10 10 10 10 10 11 12 12 11 11 11 15 12 13 12 12 10 9 9 9 9 8 8 7 7 7
10 10 10 10 9 8 9 10 10 10 8 7 7 7 7 7 7 9 11 13 14 13 10 12 12 13 12 12 11 10 9 8 8 9 8 8 7 7
10 9 8 8 8 7 9 11 13 12 12 11 10 10 9 9 8 9 11 14 14 15 11 13 13 13 15 12 11 11 12 10 9 8 8 8 7 9
10 10 9 8 8 8 8 11 12 11 11 13 13 12 12 11 11 10 10 11 13 14 11 11 13 13 14 14 12 12 12 12 12 11 9 9 8 8
10 9 9 8 8 9 10 10 10 11 14 14 15 15 14 14 12 12 12 12 11 12 11 11 13 14 15 15 16 13 12 12 12 12 12 11 9 7
9 8 7 9 9 10 11 11 12 14 15 16 17 16 14 14 13 14 13 13 12 12 11 11 12 13 13 15 16 15 14 13 12 12 12 13 11 9
8 10 10 9 10 10 12 13 13 14 15 16 16 15 15 16 16 15 15 15 15 15 13 12 12 12 14 14 14 15 14 15 13 12 12 12 11 8
9 12 12 12 13 13 13 14 14 14 15 15 16 17 17 16 16 16 16 16 17 16 15 13 12 11 12 13 14 14 14 14 13 13 13 13 12 10
11 13 14 14 14 14 15 15 15 15 15 16 17 16 17 17 17 16 16 16 16 16 14 12 12 12 12 12 9 13 13 13 13 13 13 15 14 10
14 14 15 15 15 14 15 16 16 16 16 16 16 17 17 17 17 16 16 16 16 15 14 13 12 13 15 16 11 7 11 11 11 13 13 14 14 11
15 16 16 16 16 16 16 17 17 17 17 17 17 17 17 16 16 16 16 17 17 16 16 14 13 12 13 14 13 10 7 9 9 11 12 11 10 7
15 16 16 16 16 17 18 18 18 18 18 18 17 17 17 16 16 16 16 17 16 16 16 15 13 10 10 9 11 11 9 5 6 9 9 10 10 9
16 17 17 17 17 19 19 19 19 19 19 18 18 17 17 16 16 16 16 17 17 16 15 13 12 11 10 10 10 10 8 8 6 7 6 6 7 10
17 18 18 18 19 20 20 20 20 20 19 19 18 18 17 18 16 15 16 16 16 16 15 14 13 11 10 9 8 9 9 9 10 10 10 6 5 5

GFSNE_con_lsi_048.txt.gz
Lid_Strength_Index
16 15 15 14 13 13 12 13 14 17 16 15 14 11 11 10 10 10 10 9 8 7 7 7 7 7 6 6 6 5 5 5 5 4 4 3 2 1
15 15 14 14 14 13 13 13 13 14 16 13 13 12 12 11 10 11 11 9 9 8 8 8 7 7 6 6 6 5 5 5 5 5 4 4 3 2
15 15 15 14 14 14 14 14 14 14 16 15 13 13 13 13 12 12 11 12 11 9 8 8 7 7 7 7 6 6 6 6 5 5 5 5 4 3
15 15 15 13 15 15 14 14 14 14 14 15 14 13 14 13 13 13 12 11 12 10 8 8 8 8 8 7 7 7 7 6 6 6 6 6 5 4
14 14 15 15 14 14 15 14 14 12 13 14 15 13 13 13 13 13 13 12 11 10 9 9 10 9 9 8 8 7 7 7 7 7 7 6 6 6
14 14 14 14 14 14 13 13 13 13 13 14 14 14 14 13 13 14 14 13 13 11 11 10 10 10 10 10 10 10 9 8 7 6 6 6 6 6
14 13 13 12 11 11 12 13 13 14 14 14 14 14 14 14 14 13 14 14 13 12 13 13 12 12 12 11 11 11 10 9 8 8 7 7 7 7
13 13 12 12 11 10 9 9 10 12 14 15 14 13 13 12 12 13 13 14 15 11 13 13 12 13 12 12 10 9 10 10 9 8 8 8 8 8
12 12 12 11 11 12 10 9 9 9 8 9 11 12 12 11 11 12 12 12 13 11 11 13 11 12 11 11 9 9 9 9 9 9 9 8 8 7
12 12 12 11 11 11 11 11 10 9 9 9 9 10 10 9 9 10 10 11 10 9 9 14 11 12 11 11 9 9 9 8 9 9 9 9 8 8
11 11 11 11 9 7 9 12 11 11 9 8 8 7 8 8 9 11 13 13 14 13 10 12 12 12 11 11 11 9 9 9 9 9 9 9 9 9
11 10 8 8 7 7 9 12 13 13 12 11 12 12 11 11 9 10 11 13 14 14 11 12 12 12 14 12 11 11 11 10 9 9 9 9 10 11
12 11 9 7 7 6 6 10 12 10 14 15 15 14 14 13 12 11 11 13 15 16 12 12 13 13 14 15 12 11 12 11 11 11 10 9 9 10
12 10 10 7 6 6 7 8 8 9 16 16 16 16 15 14 13 13 13 13 13 13 12 12 14 14 15 15 16 12 12 12 12 12 11 10 10 10
9 8 7 6 7 9 9 8 10 15 17 19 17 15 14 14 13 14 13 13 13 13 12 13 14 14 14 15 16 15 14 13 12 12 12 12 12 12
8 10 9 8 8 9 12 11 12 13 14 15 15 14 14 15 15 15 16 16 16 16 14 13 13 13 15 14 15 15 14 15 13 12 12 12 11 11
11 14 16 17 17 17 16 15 14 15 15 15 16 17 16 15 16 15 16 16 18 17 16 14 13 12 12 13 14 14 14 14 13 13 13 13 12 11
10 20 20 18 17 16 17 16 16 15 15 16 17 17 17 17 17 16 16 17 17 17 16 15 15 15 15 13 10 13 12 13 12 12 12 13 14 12
17 21 20 19 17 16 17 17 16 15 15 16 17 17 17 17 17 17 17 16 17 17 16 16 16 16 18 18 13 8 12 11 11 12 11 11 13 13
22 21 18 19 19 18 18 19 18 16 17 18 18 19 18 18 18 18 17 17 17 17 17 16 16 15 16 16 15 12 8 11 11 11 11 8 10 8
16 19 19 19 19 20 21 22 22 19 21 21 20 19 19 18 18 18 17 17 16 17 18 17 15 13 13 12 14 13 9 6 6 8 7 10 11 10
20 19 20 21 21 21 24 25 21 23 24 25 23 21 20 19 19 19 18 17 17 17 16 15 14 14 14 14 13 12 9 9 6 6 8 6 9 10
21 20 21 21 21 22 26 26 23 23 25 26 26 21 20 20 20 19 17 17 17 17 17 17 16 16 15 13 13 12 12 13 11 11 10 7 6 6